Effective Sunday, March 17, 2024, the National Weather Service National Data Buoy Center will discontinue its Dial-A-Buoy Interactive Voice Response system. For more information, see Service Change Notice 24-06 (PDF).

Station LCLL1 - 8767816 - Lake Charles, LA Image indicating link to RSS feed of recent meteorological observations for station LCLL1


Conditions at LCLL1 as of
(9:30 pm CST on 02/29/2024)
0330 GMT on 03/01/2024:
     

Click on the graph icon in the table below to see a time series plot of the last five days of that observation.

5-day plot - Atmospheric Pressure Atmospheric Pressure (PRES):30.19 in
5-day plot - Air Temperature Air Temperature (ATMP): 54.7 °F
5-day plot - Water Temperature Water Temperature (WTMP): 70.7 °F
NOS Water Level Observation Network Water Level
Previous observations
TIME
(CST)
5-day plot - Wind Direction
WDIR
 
5-day plot - Wind Speed
WSPD
kts
5-day plot - Wind Gust
GST
kts
5-day plot - Wave Height
WVHT
ft
5-day plot - Dominant Wave Period
DPD
sec
5-day plot - Average Wave Period
APD
sec
5-day plot - Mean Wave Direction
MWD
 
5-day plot - Atmospheric Pressure
PRES
in
5-day plot - Pressure Tendency
PTDY
in
5-day plot - Air Temperature
ATMP
°F
5-day plot - Water Temperature
WTMP
°F
5-day plot - Dew Point
DEWP
°F
5-day plot - Salinity
SAL
psu
5-day plot - Visibility
VIS
nmi
5-day plot - Tide (above MLLW)
TIDE
ft
2024-02-29 09:24 pm-------30.19- 54.5 70.7----
2024-02-29 09:18 pm-------30.19- 54.5 70.9----
2024-02-29 09:12 pm-------30.19- 54.5 70.9----
2024-02-29 09:06 pm-------30.19- 54.5 70.9----
2024-02-29 09:00 pm-------30.19+0.01 54.5 70.9----
2024-02-29 08:54 pm-------30.19- 54.5 71.1----
2024-02-29 08:48 pm-------30.19- 54.5 71.1----
2024-02-29 08:42 pm-------30.19- 54.3 71.1----
2024-02-29 08:36 pm-------30.19- 54.5 71.1----
2024-02-29 08:30 pm-------30.19- 54.3 71.1----
2024-02-29 08:24 pm-------30.19- 54.5 71.1----
2024-02-29 08:18 pm-------30.19- 54.7 71.1----
2024-02-29 08:12 pm-------30.19- 54.5 71.2----
2024-02-29 08:06 pm-------30.19- 54.7 71.2----
2024-02-29 08:00 pm-------30.19-0.01 54.7 71.2----
2024-02-29 07:54 pm-------30.18- 54.7 71.2----
2024-02-29 07:48 pm-------30.18- 54.7 71.4----
2024-02-29 07:42 pm-------30.18- 54.9 71.2----
2024-02-29 07:36 pm-------30.18- 54.7 71.4----
2024-02-29 07:30 pm-------30.18- 54.9 71.2----
2024-02-29 07:24 pm-------30.18- 54.9 71.2----
2024-02-29 07:18 pm-------30.17- 54.9 71.2----
2024-02-29 07:12 pm-------30.18- 55.0 71.2----
2024-02-29 07:06 pm-------30.17- 55.0 71.2----
2024-02-29 07:00 pm-------30.18-0.04 55.0 71.2----
2024-02-29 06:54 pm-------30.19- 55.0 71.4----
2024-02-29 06:48 pm-------30.18- 55.2 71.2----
2024-02-29 06:42 pm-------30.18- 55.0 71.4----
2024-02-29 06:36 pm-------30.19- 55.2 71.6----
2024-02-29 06:30 pm-------30.19- 55.2 71.8----
2024-02-29 06:24 pm-------30.19- 55.4 71.6----
2024-02-29 06:18 pm-------30.19- 55.2 71.4----
2024-02-29 06:12 pm-------30.18- 55.2 71.6----
2024-02-29 06:06 pm-------30.17- 55.2 71.4----
2024-02-29 06:00 pm-------30.18-0.06 55.4 71.4----
2024-02-29 05:54 pm-------30.18- 55.2 70.9----
2024-02-29 05:48 pm-------30.18- 55.2 71.1----
2024-02-29 05:42 pm-------30.18- 55.4 71.1----
2024-02-29 05:36 pm-------30.19- 55.2 71.1----
2024-02-29 04:48 pm-------30.21- 55.6 71.2----
2024-02-29 04:42 pm-------30.21- 55.6 71.2----
2024-02-29 04:36 pm-------30.21- 55.6 71.2----
2024-02-29 04:30 pm-------30.22- 55.8 71.2----
2024-02-29 04:24 pm-------30.23- 56.3 71.2----
2024-02-29 04:18 pm-------30.22- 55.9 71.2----
2024-02-29 04:12 pm-------30.22- 55.8 71.2----
2024-02-29 04:06 pm-------30.22- 55.9 71.2----
2024-02-29 04:00 pm-------30.22-0.03 55.6 71.2----
2024-02-29 03:54 pm-------30.21- 55.9 71.2----
2024-02-29 03:48 pm-------30.21- 55.9 71.2----
2024-02-29 03:42 pm-------30.21- 56.1 71.4----
2024-02-29 03:36 pm-------30.21- 56.1 71.4----
2024-02-29 03:30 pm-------30.21- 56.1 71.6----
2024-02-29 03:24 pm-------30.21- 56.1 71.4----
2024-02-29 03:18 pm-------30.22- 56.3 71.4----
2024-02-29 03:12 pm-------30.23- 56.1 71.6----
2024-02-29 03:06 pm-------30.24- 56.1 71.6----
2024-02-29 03:00 pm-------30.24-0.05 56.1 71.6----
2024-02-29 02:54 pm-------30.24- 56.3 71.8----
2024-02-29 02:48 pm-------30.24- 56.3 71.8----
2024-02-29 02:42 pm-------30.24- 56.1 71.6----
2024-02-29 02:36 pm-------30.24- 56.1 71.6----
2024-02-29 02:30 pm-------30.23- 56.5 71.6----
2024-02-29 02:24 pm-------30.22- 56.5 71.6----
2024-02-29 02:18 pm-------30.22- 57.2 71.6----
2024-02-29 02:12 pm-------30.22- 57.0 71.6----
2024-02-29 02:06 pm-------30.22- 57.0 71.6----
2024-02-29 02:00 pm-------30.23-0.07 57.4 71.8----
2024-02-29 01:54 pm-------30.22- 56.8 71.8----
2024-02-29 01:48 pm-------30.23- 56.3 71.8----
2024-02-29 01:42 pm-------30.24- 55.9 71.8----
2024-02-29 01:36 pm-------30.22- 56.3 71.8----
2024-02-29 01:30 pm-------30.24- 56.1 71.8----
2024-02-29 01:24 pm-------30.24- 56.1 71.8----
2024-02-29 01:18 pm-------30.24- 56.5 71.8----
2024-02-29 01:12 pm-------30.25- 56.5 71.6----
2024-02-29 01:06 pm-------30.25- 56.3 71.8----
2024-02-29 01:00 pm-------30.25-0.06 56.5 71.8----
2024-02-29 12:54 pm-------30.26- 56.1 71.8----
2024-02-29 12:48 pm-------30.27- 56.3 71.4----
2024-02-29 12:42 pm-------30.27- 56.3 71.4----
2024-02-29 12:36 pm-------30.27- 56.7 71.4----
2024-02-29 12:30 pm-------30.28- 56.3 71.4----
2024-02-29 12:24 pm-------30.28- 56.3 71.4----
2024-02-29 12:18 pm-------30.28- 56.5 71.4----
2024-02-29 12:12 pm-------30.28- 56.3 71.6----
2024-02-29 12:06 pm-------30.29- 55.9 71.6----
2024-02-29 12:00 pm-------30.29-0.03 56.1 71.6----
2024-02-29 11:54 am-------30.29- 56.1 71.6----
2024-02-29 11:48 am-------30.29- 55.9 71.6----
2024-02-29 11:42 am-------30.27- 55.2 71.6----
2024-02-29 11:36 am-------30.27- 55.0 71.6----
2024-02-29 11:30 am-------30.29- 55.4 71.6----
2024-02-29 11:24 am-------30.28- 54.3 71.8----
2024-02-29 11:18 am-------30.28- 54.1 71.8----
2024-02-29 11:12 am-------30.28- 53.6 71.8----
2024-02-29 11:06 am-------30.29- 53.1 71.8----
2024-02-29 11:00 am-------30.29-0.02 52.9 71.8----
2024-02-29 10:54 am-------30.30- 52.9 72.0----
2024-02-29 10:48 am-------30.30- 52.5 72.0----
2024-02-29 10:42 am-------30.30- 52.7 72.0----
2024-02-29 10:36 am-------30.33- 52.7 72.1----
2024-02-29 10:30 am-------30.34- 52.7 72.0----
2024-02-29 10:24 am-------30.33- 52.7 72.0----
2024-02-29 10:18 am-------30.31- 52.7 72.0----
2024-02-29 10:12 am-------30.32- 52.9 72.0----
2024-02-29 10:06 am-------30.31- 53.1 72.0----
2024-02-29 10:00 am-------30.31+0.00 53.1 72.0----
2024-02-29 09:54 am-------30.32- 52.7 72.1----
2024-02-29 09:48 am-------30.33- 52.7 72.1----
2024-02-29 09:42 am-------30.33- 52.7 72.1----
2024-02-29 09:36 am-------30.33- 52.5 72.1----
2024-02-29 09:30 am-------30.33- 52.7 72.0----
2024-02-29 09:24 am-------30.32- 52.5 72.1----
2024-02-29 09:18 am-------30.32- 52.3 72.1----
2024-02-29 09:12 am-------30.32- 52.7 72.1----
2024-02-29 09:06 am-------30.32- 52.3 72.1----
2024-02-29 09:00 am-------30.32+0.02 52.5 72.1----
2024-02-29 08:54 am-------30.31- 52.2 72.1----
2024-02-29 08:48 am-------30.31- 52.2 72.1----
2024-02-29 08:42 am-------30.31- 52.3 72.1----
2024-02-29 08:36 am-------30.31- 52.2 72.1----
2024-02-29 08:30 am-------30.31- 52.2 72.3----
2024-02-29 08:24 am-------30.30- 52.2 72.3----
2024-02-29 08:18 am-------30.31- 52.0 72.3----
2024-02-29 08:12 am-------30.32- 51.8 72.3----
2024-02-29 08:06 am-------30.32- 51.8 72.3----
2024-02-29 08:00 am-------30.31+0.04 51.8 72.1----
2024-02-29 07:54 am-------30.31- 51.6 72.0----
2024-02-29 07:48 am-------30.32- 51.8 72.0----
2024-02-29 07:42 am-------30.32- 51.6 72.0----
2024-02-29 07:36 am-------30.32- 51.4 72.0----
2024-02-29 07:30 am-------30.32- 51.4 72.0----
2024-02-29 07:24 am-------30.32- 51.6 72.1----
2024-02-29 07:18 am-------30.32- 51.6 72.1----
2024-02-29 07:12 am-------30.32- 51.6 72.1----
2024-02-29 07:06 am-------30.32- 51.4 72.3----
2024-02-29 07:00 am-------30.30+0.02 51.4 72.3----
2024-02-29 06:54 am-------30.29- 51.4 72.3----
2024-02-29 06:48 am-------30.29- 51.4 72.3----
2024-02-29 06:42 am-------30.29- 51.4 72.3----
2024-02-29 06:36 am-------30.29- 51.6 72.3----
2024-02-29 06:30 am-------30.29- 51.6 72.3----
2024-02-29 06:24 am-------30.28- 51.8 72.3----
2024-02-29 06:18 am-------30.29- 51.8 72.3----
2024-02-29 06:12 am-------30.30- 52.0 72.3----
2024-02-29 06:06 am-------30.30- 52.2 72.3----
2024-02-29 06:00 am-------30.30+0.03 52.0 72.5----
2024-02-29 05:54 am-------30.29- 52.2 72.5----
2024-02-29 05:48 am-------30.29- 52.3 72.5----
2024-02-29 05:42 am-------30.28- 52.3 72.5----
2024-02-29 05:36 am-------30.29- 52.3 72.5----
2024-02-29 05:30 am-------30.28- 52.3 72.5----
2024-02-29 05:24 am-------30.27- 52.5 72.7----
2024-02-29 05:18 am-------30.28- 52.5 72.7----
2024-02-29 05:12 am-------30.29- 52.5 72.7----
2024-02-29 05:06 am-------30.28- 52.5 72.7----
2024-02-29 05:00 am-------30.28+0.00- 72.7----
2024-02-29 04:54 am-------30.27-- 72.7----
2024-02-29 04:48 am-------30.26- 52.5 72.7----
2024-02-29 04:42 am-------30.26- 52.7 72.7----
2024-02-29 04:36 am-------30.25- 52.7 72.7----
2024-02-29 04:30 am-------30.26- 52.7 72.5----
2024-02-29 04:24 am-------30.27- 52.7 72.5----
2024-02-29 04:18 am-------30.28- 52.9 72.5----
2024-02-29 04:12 am-------30.29- 52.9 72.3----
2024-02-29 04:06 am-------30.29- 52.9 72.3----
2024-02-29 04:00 am-------30.28-0.01 52.9 72.3----
2024-02-29 03:54 am-------30.28- 52.9 72.3----
2024-02-29 03:48 am-------30.27- 52.9 72.3----
2024-02-29 03:42 am-------30.27- 52.9 72.3----
2024-02-29 03:36 am-------30.27- 52.9 72.3----
2024-02-29 03:30 am-------30.27- 53.1 72.3----
2024-02-29 03:24 am-------30.27- 53.1 72.3----
2024-02-29 03:18 am-------30.27- 52.9 72.3----
2024-02-29 03:12 am-------30.27- 52.9 72.5----
2024-02-29 03:06 am-------30.27- 52.7 72.5----
2024-02-29 03:00 am-------30.27-0.01 52.9 72.5----
2024-02-29 02:54 am-------30.27- 52.9 72.5----
2024-02-29 02:48 am-------30.27- 52.7 72.5----
2024-02-29 02:42 am-------30.27- 52.7 72.5----
2024-02-29 02:36 am-------30.27- 52.7 72.7----
2024-02-29 02:30 am-------30.27- 52.7 72.7----
2024-02-29 02:24 am-------30.27- 52.7 72.7----
2024-02-29 02:18 am-------30.27- 52.7 72.7----
2024-02-29 02:12 am-------30.27- 52.5 72.7----
2024-02-29 02:06 am-------30.28- 52.7 72.7----
2024-02-29 02:00 am-------30.27-0.01 52.7 72.7----
2024-02-29 01:54 am-------30.28- 52.7 72.9----
2024-02-29 01:48 am-------30.28- 52.5 72.9----
2024-02-29 01:42 am-------30.29- 52.5 72.9----
2024-02-29 01:36 am-------30.29- 52.3 72.9----
2024-02-29 01:30 am-------30.29- 52.3 72.9----
2024-02-29 01:24 am-------30.30- 52.3 73.0----
2024-02-29 01:18 am-------30.30- 52.3 72.9----
2024-02-29 01:12 am-------30.30- 52.3 72.9----
2024-02-29 01:06 am-------30.29- 52.3 73.0----
2024-02-29 01:00 am-------30.29+0.00 52.3 73.0----
2024-02-29 12:54 am-------30.29- 52.3 73.0----
2024-02-29 12:48 am-------30.29- 52.2 73.0----
2024-02-29 12:42 am-------30.29- 52.2 73.0----
2024-02-29 12:36 am-------30.29- 52.2 73.0----
2024-02-29 12:30 am-------30.29- 52.3 73.0----
2024-02-29 12:24 am-------30.29- 52.3 73.0----
2024-02-29 12:18 am-------30.29- 52.3 73.2----
2024-02-29 12:12 am-------30.29- 52.3 73.2----
2024-02-29 12:06 am-------30.30- 52.5 73.2----
2024-02-29 12:00 am-------30.29+0.01 52.5 73.2----
2024-02-28 11:54 pm-------30.29- 52.5 73.0----
2024-02-28 11:48 pm-------30.30- 52.5 72.9----
2024-02-28 11:42 pm-------30.29- 52.7 72.9----
2024-02-28 11:36 pm-------30.29- 52.7 72.9----
2024-02-28 11:30 pm-------30.29- 52.9 72.9----
2024-02-28 11:24 pm-------30.28- 53.1 72.9----
2024-02-28 11:18 pm-------30.29- 53.1 72.9----
2024-02-28 11:12 pm-------30.29- 53.2 72.9----
2024-02-28 11:06 pm-------30.29- 53.4 73.0----
2024-02-28 11:00 pm-------30.29+0.05 53.4 73.0----
2024-02-28 10:54 pm-------30.30- 53.6 73.0----
2024-02-28 10:48 pm-------30.30- 53.6 73.0----
2024-02-28 10:42 pm-------30.30- 54.0 73.0----
2024-02-28 10:36 pm-------30.29- 54.1 73.0----
2024-02-28 10:30 pm-------30.30- 54.3 73.0----
2024-02-28 10:24 pm-------30.30- 54.3 73.0----
2024-02-28 10:18 pm-------30.30- 54.5 73.0----
2024-02-28 10:12 pm-------30.30- 54.7 73.0----
2024-02-28 10:06 pm-------30.30- 54.9 73.0----
2024-02-28 10:00 pm-------30.29+0.09 55.4 73.0----
2024-02-28 09:54 pm-------30.30- 55.8 73.0----